Regional Weather Roundup
Issued by NWS New Orleans/Baton Rouge, LA

Home | Current Version | Previous Version | Text Only | Print | Product List | Glossary On
Versions: 1 2 3 4 5 6 7 8 9 10 11 12 13 14 15 16 17 18 19 20 21 22 23 24 25 26 27 28 29 30 31 32 33 34 35 36 37 38 39 40 41 42 43 44 45 46 47 48 49 50
000
ASUS44 KLIX 271710
RWRLIX
NEW ORLEANS REGIONAL WEATHER ROUNDUP
NATIONAL WEATHER SERVICE NEW ORLEANS LA
1100 AM CST FRI FEB 27 2015

NOTE: "FAIR" INDICATES FEW OR NO CLOUDS BELOW 12,000 FEET WITH NO
      SIGNIFICANT WEATHER AND/OR OBSTRUCTIONS TO VISIBILITY.
      SKY/WX - SKY CONDITION AND SIGNIFICANT WEATHER.
      TMP - AIR TEMPERATURE.     DP    - DEWPOINT TEMPERATURE.
      RH  - RELATIVE HUMIDITY.   PRES  - PRESSURE.
      HI  - HEAT INDEX.          WCI   - WIND CHILL INDEX.

*  THESE STATIONS ARE NOT NWS OR FAA STATIONS AND ARE NOT UNDER
   NWS QUALITY CONTROL.

LAZ038-040-048-061>063-065>067-069-271800-
SOUTHEAST LOUISIANA

CITY           SKY/WX    TMP DP  RH WIND       PRES   REMARKS
N.O. AUDUBON   NOT AVBL
N.O. INTL ARPT PTSUNNY   46  33  60 NE13      30.41S
N.O. LAKEFRONT SUNNY     46  32  58 NE13      30.41S
SLIDELL        SUNNY     47  31  53 N13G21    30.39F
BATON ROUGE    PTSUNNY   42  31  64 NE10      30.43F
BOOTHVILLE     CLOUDY    47  39  74 NE10G21   30.38S
BELLE CHASSE   PTSUNNY   47  31  53 NE12G24   30.39S
BOGALUSA*        N/A     43  32  65 NE12      30.45S
GALLIANO*      MOSUNNY   48  36  61 MISG      30.39F
NEW ROADS*       N/A     41  30  64 NE7       30.44F
GONZALES*        N/A     44  32  61 NE8       30.41F
HAMMOND*       PTSUNNY   45  32  61 NE8       30.44S
HOUMA*         MOSUNNY   46  34  61 NE18      30.39S
PORT FOURCHON* CLOUDY    45  37  76 NE15G24   30.39F

$$

MSZ070-080>082-271800-
SOUTHERN MISSISSIPPI

CITY           SKY/WX    TMP DP  RH WIND       PRES   REMARKS
MCCOMB         CLOUDY    36  27  69 NE13      30.44S WCI  27
GULFPORT       SUNNY     47  30  51 N15G21    30.39F
BILOXI         SUNNY     48  30  50 NE12G21   30.38F
PASCAGOULA     SUNNY     48  30  49 NE14      30.39S
STENNIS ARPT*  SUNNY     45  27  49 NE14G21   30.41S

$$

COASTAL OBSERVATIONS
LAKE AND NEARSHORE STATIONS

STATION/POSITION TIME  TEMP    WIND        PRES    WAVE
                       AIR SEA DIR/SP/G            HT/PER
                 (UTC) (F)     (DEG/KT/KT) (MB)    (FT/S)
PASCAGOULA       1700   46      20/ 11/ 17 1028.3
WAVELAND YACHT   1700   42 45   20/ 11/ 16 1028.8
GRAND ISLE       1700   44 50   60/ 14/ 19 1028.7
SOUTHWEST PASS   1700   55 48   50/ 18/ 21 1027.8
NEW CANAL        1700   42      50/ 10/ 12 1029.8
SHELL BEACH      1700   40 49   30/ 16/ 20 1029.2

OFFSHORE STATIONS

STATION/POSITION TIME  TEMP    WIND        PRES    WAVE
                       AIR SEA DIR/SP/G            HT/PER
                 (UTC) (F)     (DEG/KT/KT) (MB)    (FT/S)
64 S DAUPHIN ISL 1552   50 65   70/ 21/ 27 1027.1    7/ 7

$$



USA.gov is the U.S. government's official web portal to all federal, state and local government web resources and services.